| time (UTC) | temp F | wind direction | speed MPH | gust MPH | rain 1hr in | rain 24hr in | rain mn in | humidity % | barometer mb |
| 20260507191716 | 44 | 112 | 0.0 | 2.0 | 0.00 | 0.00 | 0.00 | 73 | 1019.7 |
| 20260507190716 | 44 | 0.0 | 0.0 | 0.00 | 0.00 | 0.00 | 73 | 1019.7 | |
| 20260507185716 | 44 | 322 | 0.0 | 1.0 | 0.00 | 0.00 | 0.00 | 74 | 1019.7 |
| 20260507184716 | 44 | 112 | 1.0 | 2.0 | 0.00 | 0.00 | 0.00 | 74 | 1019.7 |
| 20260507183718 | 44 | 76 | 1.0 | 4.0 | 0.00 | 0.00 | 0.00 | 74 | 1019.7 |
| 20260507182717 | 44 | 178 | 4.0 | 6.0 | 0.00 | 0.00 | 0.00 | 76 | 1019.7 |
| 20260507181737 | 44 | 202 | 0.0 | 1.0 | 0.00 | 0.00 | 0.00 | 77 | 1019.7 |
| 20260507180716 | 43 | 166 | 2.0 | 2.0 | 0.00 | 0.00 | 0.00 | 79 | 1019.7 |
| 20260507175737 | 43 | 0.0 | 0.0 | 0.00 | 0.00 | 0.00 | 80 | 1019.7 | |
| 20260507174716 | 43 | 112 | 2.0 | 3.0 | 0.00 | 0.00 | 0.00 | 81 | 1019.6 |
| 20260507173716 | 42 | 112 | 0.0 | 1.0 | 0.00 | 0.00 | 0.00 | 83 | 1019.7 |
| 20260507172736 | 42 | 0.0 | 0.0 | 0.00 | 0.00 | 0.00 | 84 | 1019.6 | |
| 20260507171737 | 42 | 0.0 | 0.0 | 0.00 | 0.00 | 0.00 | 85 | 1019.4 | |
| 20260507170717 | 42 | 45 | 0.0 | 1.0 | 0.00 | 0.00 | 0.00 | 87 | 1019.7 |
| 20260507165716 | 40 | 45 | 2.0 | 3.0 | 0.00 | 0.00 | 0.00 | 88 | 1019.7 |
| 20260507164716 | 39 | 112 | 1.0 | 2.0 | 0.00 | 0.01 | 0.00 | 89 | 1019.7 |
| 20260507163716 | 39 | 0.0 | 0.0 | 0.00 | 0.01 | 0.00 | 89 | 1019.7 | |
| 20260507162716 | 38 | 0.0 | 0.0 | 0.00 | 0.02 | 0.00 | 89 | 1019.7 | |
| 20260507161737 | 38 | 0.0 | 0.0 | 0.00 | 0.02 | 0.00 | 89 | 1019.4 | |
| 20260507160716 | 38 | 0.0 | 0.0 | 0.00 | 0.02 | 0.00 | 89 | 1019.4 | |
| 20260507155716 | 37 | 0.0 | 0.0 | 0.00 | 0.02 | 0.00 | 90 | 1019.2 | |
| 20260507154716 | 37 | 0.0 | 0.0 | 0.00 | 0.02 | 0.00 | 90 | 1019.3 | |
| 20260507153717 | 37 | 0.0 | 0.0 | 0.00 | 0.02 | 0.00 | 90 | 1019.1 | |
| 20260507152716 | 36 | 0.0 | 0.0 | 0.00 | 0.02 | 0.00 | 90 | 1019.1 | |
| 20260507151737 | 36 | 0.0 | 0.0 | 0.00 | 0.02 | 0.00 | 90 | 1019.1 | |
| 20260507150717 | 35 | 0.0 | 0.0 | 0.00 | 0.02 | 0.00 | 90 | 1019.1 | |
| 20260507145716 | 35 | 0.0 | 0.0 | 0.00 | 0.02 | 0.00 | 90 | 1019.1 | |
| 20260507144717 | 35 | 0.0 | 0.0 | 0.00 | 0.02 | 0.00 | 90 | 1019.1 | |
| 20260507143717 | 35 | 0.0 | 0.0 | 0.00 | 0.02 | 0.00 | 90 | 1019.1 | |
| 20260507142736 | 35 | 0.0 | 0.0 | 0.00 | 0.02 | 0.00 | 90 | 1019.1 | |
| 20260507141718 | 35 | 0.0 | 0.0 | 0.00 | 0.02 | 0.00 | 90 | 1019.1 | |
| 20260507140716 | 35 | 0.0 | 0.0 | 0.00 | 0.02 | 0.00 | 90 | 1019.1 | |
| 20260507135737 | 35 | 0.0 | 0.0 | 0.00 | 0.02 | 0.00 | 90 | 1019.1 | |
| 20260507134757 | 35 | 0.0 | 0.0 | 0.00 | 0.02 | 0.00 | 90 | 1019.1 | |
| 20260507133716 | 35 | 0.0 | 0.0 | 0.00 | 0.02 | 0.00 | 90 | 1019.1 | |
| 20260507132716 | 35 | 0.0 | 0.0 | 0.00 | 0.02 | 0.00 | 90 | 1019.1 | |
| 20260507131717 | 34 | 0.0 | 0.0 | 0.00 | 0.02 | 0.00 | 90 | 1019.1 | |
| 20260507130716 | 35 | 0.0 | 0.0 | 0.00 | 0.02 | 0.00 | 90 | 1018.9 | |
| 20260507125757 | 35 | 0.0 | 0.0 | 0.00 | 0.02 | 0.00 | 90 | 1018.7 | |
| 20260507124718 | 35 | 0.0 | 0.0 | 0.00 | 0.02 | 0.00 | 89 | 1018.7 | |
| 20260507123716 | 35 | 0.0 | 0.0 | 0.00 | 0.02 | 0.00 | 89 | 1018.7 | |
| 20260507122716 | 35 | 0.0 | 0.0 | 0.00 | 0.02 | 0.00 | 89 | 1018.7 | |
| 20260507121737 | 35 | 0.0 | 0.0 | 0.00 | 0.02 | 0.00 | 89 | 1018.7 | |
| 20260507120716 | 35 | 337 | 1.0 | 1.0 | 0.00 | 0.02 | 0.00 | 89 | 1018.7 |
| 20260507115718 | 35 | 0.0 | 0.0 | 0.00 | 0.02 | 0.00 | 89 | 1018.8 | |
| 20260507114716 | 35 | 0.0 | 0.0 | 0.00 | 0.02 | 0.00 | 89 | 1019.1 | |
| 20260507113717 | 35 | 0.0 | 0.0 | 0.00 | 0.02 | 0.00 | 89 | 1018.8 | |
| 20260507112716 | 35 | 337 | 0.0 | 1.0 | 0.00 | 0.02 | 0.00 | 89 | 1018.9 |
| 20260507111717 | 36 | 0.0 | 0.0 | 0.00 | 0.02 | 0.00 | 89 | 1018.8 | |
| 20260507110716 | 36 | 0.0 | 0.0 | 0.00 | 0.02 | 0.00 | 89 | 1019.1 | |
| 20260507105716 | 36 | 0.0 | 0.0 | 0.00 | 0.02 | 0.00 | 88 | 1019.1 | |
| 20260507104716 | 36 | 0.0 | 0.0 | 0.00 | 0.02 | 0.00 | 88 | 1019.1 | |
| 20260507103716 | 36 | 0.0 | 0.0 | 0.00 | 0.02 | 0.00 | 88 | 1019.1 | |
| 20260507102717 | 36 | 0.0 | 0.0 | 0.00 | 0.02 | 0.00 | 88 | 1019.1 | |
| 20260507101736 | 36 | 337 | 1.0 | 2.0 | 0.00 | 0.02 | 0.00 | 89 | 1019.1 |
| 20260507100716 | 37 | 0.0 | 0.0 | 0.00 | 0.02 | 0.00 | 89 | 1019.1 | |
| 20260507095737 | 37 | 337 | 2.0 | 2.0 | 0.00 | 0.02 | 0.00 | 89 | 1019.1 |
| 20260507094716 | 37 | 0.0 | 0.0 | 0.00 | 0.02 | 0.00 | 89 | 1019.1 | |
| 20260507093717 | 37 | 337 | 0.0 | 1.0 | 0.00 | 0.02 | 0.00 | 88 | 1019.1 |
| 20260507092716 | 37 | 0.0 | 0.0 | 0.00 | 0.02 | 0.00 | 88 | 1019.1 | |
| 20260507091737 | 37 | 0.0 | 0.0 | 0.00 | 0.02 | 0.00 | 88 | 1018.8 | |
| 20260507090716 | 37 | 0.0 | 0.0 | 0.00 | 0.02 | 0.00 | 87 | 1018.9 | |
| 20260507085717 | 38 | 0.0 | 0.0 | 0.00 | 0.02 | 0.00 | 87 | 1018.8 | |
| 20260507084737 | 38 | 315 | 1.0 | 1.0 | 0.00 | 0.02 | 0.00 | 87 | 1018.7 |
| 20260507083716 | 38 | 315 | 2.0 | 3.0 | 0.00 | 0.02 | 0.00 | 87 | 1018.7 |
| 20260507082716 | 38 | 0.0 | 0.0 | 0.00 | 0.02 | 0.00 | 87 | 1018.6 | |
| 20260507081717 | 38 | 0.0 | 0.0 | 0.00 | 0.02 | 0.00 | 87 | 1018.7 | |
| 20260507080717 | 38 | 0.0 | 0.0 | 0.00 | 0.02 | 0.00 | 87 | 1018.4 | |
| 20260507075716 | 38 | 0.0 | 0.0 | 0.00 | 0.02 | 0.02 | 86 | 1018.4 | |
| 20260507074717 | 39 | 315 | 0.0 | 1.0 | 0.00 | 0.02 | 0.02 | 86 | 1018.4 |
| 20260507073757 | 39 | 315 | 1.0 | 2.0 | 0.00 | 0.02 | 0.02 | 86 | 1018.4 |
| 20260507072716 | 39 | 0.0 | 0.0 | 0.00 | 0.02 | 0.02 | 86 | 1018.4 | |
| 20260507071717 | 39 | 0.0 | 0.0 | 0.00 | 0.02 | 0.02 | 85 | 1018.0 | |
| 20260507070716 | 39 | 0.0 | 0.0 | 0.00 | 0.02 | 0.02 | 84 | 1018.0 | |
| 20260507065736 | 40 | 0.0 | 0.0 | 0.00 | 0.02 | 0.02 | 84 | 1018.0 | |
| 20260507064758 | 40 | 0.0 | 0.0 | 0.00 | 0.02 | 0.02 | 82 | 1018.0 | |
| 20260507063718 | 41 | 0.0 | 0.0 | 0.00 | 0.02 | 0.02 | 80 | 1018.0 | |
| 20260507062716 | 41 | 0.0 | 0.0 | 0.00 | 0.02 | 0.02 | 79 | 1017.9 | |
| 20260507061717 | 41 | 315 | 2.0 | 4.0 | 0.00 | 0.02 | 0.02 | 79 | 1017.7 |
| 20260507060717 | 42 | 0.0 | 0.0 | 0.00 | 0.02 | 0.02 | 79 | 1017.8 | |
| 20260507055716 | 41 | 337 | 1.0 | 1.0 | 0.00 | 0.02 | 0.02 | 80 | 1017.7 |
| 20260507054736 | 41 | 0.0 | 0.0 | 0.00 | 0.02 | 0.02 | 81 | 1017.7 | |
| 20260507053717 | 42 | 0.0 | 0.0 | 0.00 | 0.02 | 0.02 | 80 | 1017.7 | |
| 20260507052716 | 42 | 0.0 | 0.0 | 0.00 | 0.02 | 0.02 | 77 | 1017.6 | |
| 20260507051717 | 43 | 0.0 | 0.0 | 0.00 | 0.02 | 0.02 | 77 | 1017.4 | |
| 20260507050717 | 43 | 0.0 | 0.0 | 0.00 | 0.02 | 0.02 | 77 | 1017.4 | |
| 20260507045716 | 43 | 324 | 3.0 | 4.0 | 0.00 | 0.02 | 0.02 | 77 | 1017.4 |
| 20260507044716 | 43 | 315 | 2.0 | 3.0 | 0.00 | 0.02 | 0.02 | 77 | 1017.4 |
| 20260507043737 | 43 | 330 | 1.0 | 2.0 | 0.00 | 0.02 | 0.02 | 77 | 1017.4 |
| 20260507042736 | 43 | 0.0 | 0.0 | 0.00 | 0.02 | 0.02 | 77 | 1017.0 | |
| 20260507041718 | 44 | 315 | 0.0 | 2.0 | 0.00 | 0.02 | 0.02 | 75 | 1017.0 |
| 20260507040738 | 44 | 0.0 | 0.0 | 0.00 | 0.02 | 0.02 | 76 | 1017.0 | |
| 20260507035716 | 44 | 315 | 1.0 | 2.0 | 0.00 | 0.02 | 0.02 | 75 | 1017.0 |
| 20260507034718 | 44 | 330 | 0.0 | 3.0 | 0.00 | 0.02 | 0.02 | 74 | 1017.0 |
| 20260507033716 | 44 | 339 | 2.0 | 2.0 | 0.00 | 0.02 | 0.02 | 74 | 1017.0 |
| 20260507032717 | 45 | 313 | 3.0 | 4.0 | 0.00 | 0.02 | 0.02 | 72 | 1016.8 |
| 20260507031716 | 45 | 343 | 2.0 | 4.0 | 0.00 | 0.02 | 0.02 | 71 | 1016.7 |
| 20260507030718 | 46 | 0.0 | 0.0 | 0.00 | 0.02 | 0.02 | 71 | 1016.7 | |
| 20260507025716 | 46 | 60 | 0.0 | 1.0 | 0.00 | 0.02 | 0.02 | 69 | 1016.7 |
| 20260507024717 | 47 | 0.0 | 0.0 | 0.00 | 0.02 | 0.02 | 69 | 1016.6 | |
| 20260507023716 | 47 | 0.0 | 0.0 | 0.00 | 0.02 | 0.02 | 69 | 1016.3 | |
| 20260507022716 | 47 | 337 | 1.0 | 2.0 | 0.00 | 0.02 | 0.02 | 68 | 1016.3 |
| 20260507021716 | 47 | 79 | 1.0 | 2.0 | 0.00 | 0.02 | 0.02 | 67 | 1016.3 |
| 20260507020716 | 47 | 315 | 0.0 | 1.0 | 0.00 | 0.02 | 0.02 | 68 | 1016.3 |
| 20260507015737 | 47 | 0.0 | 0.0 | 0.00 | 0.02 | 0.02 | 67 | 1016.3 | |
| 20260507014716 | 47 | 190 | 2.0 | 4.0 | 0.00 | 0.02 | 0.02 | 67 | 1016.3 |
| 20260507013717 | 48 | 125 | 3.0 | 4.0 | 0.00 | 0.02 | 0.02 | 67 | 1016.3 |
| 20260507012716 | 48 | 287 | 1.0 | 5.0 | 0.00 | 0.02 | 0.02 | 66 | 1016.3 |
| 20260507011717 | 48 | 98 | 2.0 | 2.0 | 0.00 | 0.02 | 0.02 | 66 | 1016.0 |
| 20260507010716 | 48 | 288 | 3.0 | 6.0 | 0.00 | 0.02 | 0.02 | 66 | 1016.1 |
| 20260507005738 | 48 | 0.0 | 3.0 | 0.00 | 0.02 | 0.02 | 66 | 1016.0 | |
| 20260507004716 | 48 | 45 | 0.0 | 2.0 | 0.00 | 0.02 | 0.02 | 65 | 1016.0 |
| 20260507003716 | 48 | 0.0 | 0.0 | 0.00 | 0.02 | 0.02 | 66 | 1016.0 | |
| 20260507002736 | 48 | 112 | 1.0 | 2.0 | 0.00 | 0.02 | 0.02 | 66 | 1016.0 |
| 20260507001737 | 48 | 112 | 0.0 | 2.0 | 0.00 | 0.02 | 0.02 | 67 | 1016.0 |
| 20260507000716 | 48 | 125 | 0.0 | 5.0 | 0.00 | 0.02 | 0.02 | 67 | 1016.0 |
| 20260506235716 | 48 | 195 | 3.0 | 4.0 | 0.00 | 0.02 | 0.02 | 66 | 1016.0 |
| 20260506234736 | 49 | 49 | 0.0 | 1.0 | 0.00 | 0.02 | 0.02 | 66 | 1015.7 |
| 20260506233738 | 49 | 118 | 2.0 | 4.0 | 0.00 | 0.02 | 0.02 | 66 | 1015.6 |
| 20260506232716 | 49 | 135 | 2.0 | 4.0 | 0.00 | 0.02 | 0.02 | 67 | 1015.6 |
| 20260506231817 | 49 | 302 | 2.0 | 5.0 | 0.00 | 0.02 | 0.02 | 67 | 1015.4 |
| 20260506230717 | 48 | 112 | 1.0 | 4.0 | 0.00 | 0.02 | 0.02 | 67 | 1015.4 |
| 20260506225717 | 48 | 155 | 2.0 | 4.0 | 0.00 | 0.02 | 0.02 | 68 | 1015.3 |
| 20260506224716 | 49 | 173 | 2.0 | 6.0 | 0.00 | 0.02 | 0.02 | 68 | 1015.3 |
| 20260506223716 | 48 | 79 | 0.0 | 1.0 | 0.00 | 0.02 | 0.02 | 68 | 1015.3 |
| 20260506222717 | 48 | 164 | 4.0 | 6.0 | 0.00 | 0.02 | 0.02 | 69 | 1015.3 |
| 20260506221736 | 48 | 143 | 4.0 | 6.0 | 0.00 | 0.02 | 0.02 | 68 | 1015.3 |
| 20260506220718 | 48 | 116 | 4.0 | 5.0 | 0.00 | 0.02 | 0.02 | 69 | 1015.3 |
| 20260506215716 | 48 | 127 | 3.0 | 5.0 | 0.00 | 0.02 | 0.02 | 69 | 1015.3 |
| 20260506214738 | 48 | 184 | 3.0 | 4.0 | 0.00 | 0.02 | 0.02 | 70 | 1015.3 |
| 20260506213716 | 48 | 356 | 2.0 | 3.0 | 0.00 | 0.02 | 0.02 | 71 | 1015.0 |
| 20260506212717 | 47 | 164 | 3.0 | 4.0 | 0.00 | 0.02 | 0.02 | 72 | 1015.0 |
| 20260506211716 | 47 | 250 | 1.0 | 3.0 | 0.00 | 0.02 | 0.02 | 72 | 1015.0 |
| 20260506210716 | 47 | 0.0 | 0.0 | 0.00 | 0.02 | 0.02 | 73 | 1015.0 | |
| 20260506205716 | 47 | 144 | 1.0 | 3.0 | 0.00 | 0.02 | 0.02 | 75 | 1014.7 |
| 20260506204717 | 46 | 352 | 0.0 | 2.0 | 0.00 | 0.02 | 0.02 | 76 | 1014.9 |
| 20260506203716 | 47 | 112 | 1.0 | 3.0 | 0.00 | 0.02 | 0.02 | 76 | 1014.6 |
| 20260506202716 | 46 | 108 | 1.0 | 3.0 | 0.00 | 0.02 | 0.02 | 76 | 1014.6 |
| 20260506201716 | 46 | 113 | 1.0 | 2.0 | 0.00 | 0.02 | 0.02 | 77 | 1014.6 |
| 20260506200738 | 46 | 112 | 2.0 | 4.0 | 0.00 | 0.02 | 0.02 | 79 | 1014.6 |
| 20260506195716 | 45 | 87 | 1.0 | 2.0 | 0.00 | 0.02 | 0.02 | 79 | 1014.6 |
| 20260506194716 | 44 | 168 | 1.0 | 3.0 | 0.00 | 0.02 | 0.02 | 81 | 1014.3 |
| 20260506193756 | 45 | 114 | 2.0 | 2.0 | 0.00 | 0.02 | 0.02 | 83 | 1014.3 |
| 20260506192717 | 44 | 0.0 | 0.0 | 0.00 | 0.02 | 0.02 | 85 | 1014.3 |